User: anonymous
Location: Seminole
(32.7190°N, 102.6440°W)
Time: 23:22:31
(UTC-05:00)
Language:

Meteor 2-10 - Orbit

View from above orbital plane
View from above orbital plane
View from above satellite
View from above satellite

Ground track
Ground track

The orbit data is extracted from the following two-line orbital elements,

1 14452U 83109A   14204.05003657  .00000122  00000-0  43976-4 0  5516
2 14452 081.1607 066.2528 0090367 215.2386 144.2799 14.26242084597899
Epoch (UTC): 23 July 2014 01:12:03
Eccentricity: 0.0090367
inclination: 81.1607°
perigee height: 739 km
apogee height: 869 km
right ascension of ascending node: 66.2528°
argument of perigee: 215.2386°
revolutions per day: 14.26242084
mean anomaly at epoch: 144.2799°
orbit number at epoch: 59789

The dashed part of the orbit path shows where the satellite is in the earth's shadow,  

DLR